Location: Bogis-Bossey
(46.3500°N, 6.1667°E)
Time: 18:14:16
(UTC+00:00)

USA 238 DEB - Pass Details

Date: 07 March 2024
Orbit: 926 x 1285 km, 63.4° (Epoch: 21 April)

Event Time Altitude Azimuth Distance (km) Brightness Sun altitude
Exits shadow 03:51:59 26° 306° (NW) 1,886 4.7 -23.2°
Maximum altitude 03:53:43 30° 332° (NNW) 1,789 4.8 -22.9°
Drops below altitude 10° 03:59:44 10° 32° (NNE) 2,972 6.7 -21.9°
Sets 04:02:57 0° 43° (NE) 3,996 7.7 -21.3°
